This is the latest recevied weather packets stored in our database for station/object K2ATL. If no packets are shown the sender has not sent any weather packets the latest 10 day(s).
| Time | Temp. | Humidity | Pressure | Rain* | Wind** | Luminosity | Snow |
|---|---|---|---|---|---|---|---|
| 1787773359 | 26.67° C | 65% | 1102.6 hPa | 0 mm | - | 642 W/m² | - |
| 1787773054 | 27.22° C | 63% | 1102.8 hPa | 0 mm | - | 656 W/m² | - |
| 1787772749 | 27.22° C | 63% | 1102.8 hPa | 0 mm | - | 691 W/m² | - |
| 1787772448 | 29.44° C | 55% | 1102.7 hPa | 0 mm | - | 733 W/m² | - |
| 1787772142 | 27.78° C | 60% | 1103.1 hPa | 0 mm | - | 777 W/m² | - |
| 1787771842 | 27.78° C | 61% | 1103.1 hPa | 0 mm | - | 772 W/m² | - |
| 1787771541 | 27.22° C | 57% | 1103.1 hPa | 0 mm | - | 780 W/m² | - |
| 1787771241 | 27.22° C | 57% | 1103.2 hPa | 0 mm | - | 770 W/m² | - |
| 1787770936 | 26.67° C | 68% | 1103.2 hPa | 0 mm | - | 780 W/m² | - |
| 1787770635 | 26.11° C | 67% | 1103.3 hPa | 0 mm | - | 829 W/m² | - |
| 1787770329 | 28.33° C | 62% | 1103.6 hPa | 0 mm | - | 220 W/m² | - |
| 1787770028 | 27.78° C | 56% | 1103.5 hPa | 0 mm | - | 850 W/m² | - |
| 1787769723 | 27.78° C | 58% | 1103.6 hPa | 0 mm | - | 860 W/m² | - |
| 1787769421 | 27.78° C | 62% | 1103.6 hPa | 0 mm | - | 863 W/m² | - |
| 1787769117 | 27.22° C | 58% | 1103.8 hPa | 0 mm | - | 861 W/m² | - |
| 1787768811 | 26.67° C | 58% | 1103.9 hPa | 0 mm | - | 879 W/m² | - |
| 1787768508 | 27.22° C | 61% | 1104.1 hPa | 0 mm | - | 909 W/m² | - |
| 1787768203 | 26.67° C | 62% | 1104 hPa | 0 mm | - | 912 W/m² | - |
| 1787767899 | 26.11° C | 63% | 1104.3 hPa | 0 mm | - | 890 W/m² | - |
| 1787767594 | 27.22° C | 66% | 1104.1 hPa | 0 mm | - | 865 W/m² | - |
| 1787767293 | 26.11° C | 66% | 1104.6 hPa | 0 mm | - | 787 W/m² | - |
| 1787766992 | 26.67° C | 62% | 1104.5 hPa | 0 mm | - | 824 W/m² | - |
| 1787766686 | 25.56° C | 63% | 1104.5 hPa | 0 mm | - | 875 W/m² | - |
| 1787766385 | 25.56° C | 65% | 1104.6 hPa | 0 mm | - | 865 W/m² | - |
| 1787766079 | 26.67° C | 62% | 1104.5 hPa | 0 mm | - | 701 W/m² | - |
* Rain latest hour (hover to see other rain measurements)
** Current wind speed in m/s (hover to see current wind gust speed)